{"data":{"norad_id":64046,"intl_designator":"2025-102AA","name":"STARLINK-33952","alt_names":[],"object_type":"PAYLOAD","status":"ACTIVE","operator":null,"country":"US","launch_date":"2025-05-16","launch_site_code":"AFWTR","launch_vehicle":null,"mission":null,"orbit_class":"UNKNOWN","rcs_meters":null,"size_class":null,"mass_kg":null,"dimensions":null,"purposes":["comms"],"wikipedia_slug":null,"has_3d_model":false,"image_url":null,"decayed_at":null,"tle_current":{"epoch":"2026-05-24T19:02:12.974208Z","epoch_age_seconds":82981,"freshness":"FRESH","line1":"1 64046U 25102AA  26144.79320572  .00005077  00000+0  43274-3 0  9993","line2":"2 64046  70.0003 282.4883 0002968 271.7096  88.3723 14.98352777 57358","mean_motion":14.98352777,"eccentricity":0.0002968,"inclination_deg":70.0003,"raan_deg":282.4883,"arg_perigee_deg":271.7096,"mean_anomaly_deg":88.3723,"bstar":0.00043274,"rev_number":5735,"period_min":96.105538168599,"perigee_km":569.92265949817,"apogee_km":574.04825218796,"semimajor_km":6950.1224558431,"source":"CELESTRAK","updated_at":"2026-05-25T13:38:20.256542Z"}}}